PAL301 RPMD-PGUM

Flight info

Callsign PAL301
Flight time 3h 24m
Altitude 39000
Route DAPEL1A DAPEL DCT OLBIE M756 AIBIE DCT ROR DCT PIGFA A450 BUCAT DCT OBALE
Aircraft A346/H-SDE2E3FGHIJ3J4J5M1RWXY/LB1D1

Departure

Time 2026-04-30 03:33
Airport Francisco Bangoy International Airport (RPMD)

Arrival

Time 2026-04-30 06:57
Airport Antonio B. Won Pat International Airport (PGUM)
Time Latitude Longitude Altitude Speed Heading
2026-04-30 02:33 7.12934 125.64562 125 ft 0 kts 319°
2026-04-30 03:18 7.12931 125.64565 125 ft 1 kts 319°
2026-04-30 03:18 7.12920 125.64575 125 ft 2 kts 308°
2026-04-30 03:18 7.12913 125.64587 125 ft 2 kts 294°
2026-04-30 03:18 7.12908 125.64602 125 ft 2 kts 283°
2026-04-30 03:19 7.12905 125.64616 125 ft 2 kts 271°
2026-04-30 03:19 7.12906 125.64632 125 ft 2 kts 259°
2026-04-30 03:19 7.12910 125.64646 125 ft 2 kts 247°
2026-04-30 03:19 7.12917 125.64659 125 ft 2 kts 235°
2026-04-30 03:20 7.12922 125.64666 125 ft 0 kts 229°
2026-04-30 03:20 7.12924 125.64668 125 ft 0 kts 228°
2026-04-30 03:25 7.12922 125.64666 125 ft 1 kts 228°
2026-04-30 03:25 7.12904 125.64645 125 ft 5 kts 228°
2026-04-30 03:25 7.12893 125.64633 125 ft 2 kts 228°
2026-04-30 03:25 7.12874 125.64610 125 ft 6 kts 231°
2026-04-30 03:26 7.12839 125.64568 125 ft 9 kts 229°
2026-04-30 03:26 7.12789 125.64511 125 ft 11 kts 228°
2026-04-30 03:26 7.12755 125.64476 125 ft 6 kts 222°
2026-04-30 03:26 7.12715 125.64458 125 ft 6 kts 184°
2026-04-30 03:27 7.12666 125.64476 125 ft 8 kts 147°
2026-04-30 03:27 7.12612 125.64520 126 ft 11 kts 137°
2026-04-30 03:27 7.12549 125.64546 126 ft 9 kts 198°
2026-04-30 03:27 7.12491 125.64507 126 ft 11 kts 221°
2026-04-30 03:28 7.12426 125.64445 126 ft 14 kts 225°
2026-04-30 03:28 7.12361 125.64365 126 ft 15 kts 231°
2026-04-30 03:28 7.12286 125.64275 126 ft 17 kts 230°
2026-04-30 03:28 7.12204 125.64175 126 ft 18 kts 230°
2026-04-30 03:29 7.12117 125.64072 126 ft 20 kts 229°
2026-04-30 03:29 7.12031 125.63973 126 ft 16 kts 229°
2026-04-30 03:29 7.11954 125.63882 126 ft 18 kts 230°
2026-04-30 03:29 7.11870 125.63783 126 ft 14 kts 228°
2026-04-30 03:30 7.11810 125.63717 126 ft 13 kts 228°
2026-04-30 03:30 7.11772 125.63653 126 ft 6 kts 267°
2026-04-30 03:30 7.11761 125.63602 126 ft 8 kts 250°
2026-04-30 03:30 7.11737 125.63567 126 ft 1 kts 198°
2026-04-30 03:31 7.11723 125.63567 126 ft 1 kts 158°
2026-04-30 03:31 7.11716 125.63579 126 ft 2 kts 95°
2026-04-30 03:31 7.11724 125.63603 126 ft 0 kts 61°
2026-04-30 03:32 7.11729 125.63612 126 ft 3 kts 59°
2026-04-30 03:32 7.11801 125.63707 126 ft 50 kts 50°
2026-04-30 03:32 7.12221 125.64195 126 ft 132 kts 49°
2026-04-30 03:32 7.12968 125.65064 265 ft 184 kts 47°
2026-04-30 03:33 7.13779 125.65978 1214 ft 173 kts 50°
2026-04-30 03:33 7.14363 125.66973 2078 ft 165 kts 76°
2026-04-30 03:33 7.14291 125.68079 2762 ft 166 kts 116°
2026-04-30 03:33 7.13481 125.68906 3143 ft 174 kts 149°
2026-04-30 03:34 7.12305 125.69299 3527 ft 182 kts 172°
2026-04-30 03:34 7.11003 125.69443 3847 ft 195 kts 171°
2026-04-30 03:34 7.09603 125.69618 4142 ft 211 kts 171°
2026-04-30 03:34 7.08068 125.69813 4429 ft 231 kts 171°
2026-04-30 03:35 7.06391 125.70030 4804 ft 250 kts 167°
2026-04-30 03:35 7.04751 125.70675 5206 ft 263 kts 141°
2026-04-30 03:35 7.03308 125.71875 5750 ft 276 kts 134°
2026-04-30 03:35 7.01876 125.73196 6549 ft 281 kts 135°
2026-04-30 03:36 7.00439 125.74493 7434 ft 281 kts 135°
2026-04-30 03:36 6.98955 125.75788 8293 ft 282 kts 136°
2026-04-30 03:36 6.97460 125.77062 9117 ft 283 kts 136°
2026-04-30 03:36 6.95957 125.78327 9885 ft 285 kts 137°
2026-04-30 03:37 6.94417 125.79614 10527 ft 292 kts 137°
2026-04-30 03:37 6.92815 125.80951 10886 ft 309 kts 137°
2026-04-30 03:37 6.91077 125.82394 11205 ft 327 kts 138°
2026-04-30 03:37 6.89240 125.83918 11503 ft 345 kts 138°
2026-04-30 03:38 6.87324 125.85505 11792 ft 362 kts 138°
2026-04-30 03:38 6.85334 125.87116 12107 ft 378 kts 140°
2026-04-30 03:38 6.83222 125.88758 12687 ft 384 kts 140°
2026-04-30 03:38 6.81108 125.90391 13395 ft 387 kts 141°
2026-04-30 03:39 6.78962 125.92056 14051 ft 390 kts 141°
2026-04-30 03:39 6.76802 125.93734 14652 ft 394 kts 140°
2026-04-30 03:39 6.74679 125.95445 15249 ft 396 kts 135°
2026-04-30 03:39 6.73032 125.97662 15830 ft 397 kts 116°
2026-04-30 03:40 6.72190 126.00294 16423 ft 400 kts 98°
2026-04-30 03:40 6.72190 126.03108 16965 ft 404 kts 83°
2026-04-30 03:40 6.72619 126.05881 17556 ft 407 kts 82°
2026-04-30 03:40 6.73039 126.08718 18107 ft 410 kts 82°
2026-04-30 03:41 6.73448 126.11533 18660 ft 413 kts 82°
2026-04-30 03:41 6.73861 126.14414 19207 ft 416 kts 83°
2026-04-30 03:41 6.74270 126.17291 19747 ft 419 kts 83°
2026-04-30 03:41 6.74682 126.20204 20270 ft 422 kts 83°
2026-04-30 03:42 6.75094 126.23110 20764 ft 425 kts 83°
2026-04-30 03:42 6.75508 126.26050 21251 ft 428 kts 83°
2026-04-30 03:42 6.75928 126.29028 21731 ft 431 kts 83°
2026-04-30 03:42 6.76348 126.32021 22200 ft 434 kts 83°
2026-04-30 03:43 6.76767 126.35002 22672 ft 436 kts 83°
2026-04-30 03:43 6.77193 126.38037 23152 ft 439 kts 83°
2026-04-30 03:43 6.77621 126.41087 23588 ft 442 kts 83°
2026-04-30 03:43 6.78049 126.44133 24043 ft 445 kts 82°
2026-04-30 03:44 6.78483 126.47221 24480 ft 448 kts 82°
2026-04-30 03:44 6.78920 126.50337 24903 ft 451 kts 82°
2026-04-30 03:44 6.79355 126.53435 25328 ft 453 kts 82°
2026-04-30 03:44 6.79796 126.56576 25743 ft 456 kts 82°
2026-04-30 03:45 6.80238 126.59735 26156 ft 459 kts 82°
2026-04-30 03:45 6.80686 126.62931 26546 ft 462 kts 82°
2026-04-30 03:45 6.81135 126.66138 26931 ft 465 kts 82°
2026-04-30 03:45 6.81586 126.69361 27321 ft 467 kts 82°
2026-04-30 03:46 6.82042 126.72617 27702 ft 470 kts 82°
2026-04-30 03:46 6.82496 126.75872 28075 ft 473 kts 82°
2026-04-30 03:46 6.82955 126.79148 28521 ft 473 kts 82°
2026-04-30 03:46 6.83409 126.82410 29122 ft 471 kts 82°
2026-04-30 03:47 6.83859 126.85636 29737 ft 469 kts 82°
2026-04-30 03:47 6.84310 126.88873 30326 ft 467 kts 82°
2026-04-30 03:47 6.84757 126.92078 30891 ft 465 kts 82°
2026-04-30 03:47 6.85209 126.95326 31460 ft 464 kts 82°
2026-04-30 03:48 6.85653 126.98517 32033 ft 462 kts 81°
2026-04-30 03:48 6.86097 127.01707 32592 ft 460 kts 81°
2026-04-30 03:48 6.86533 127.04838 33179 ft 459 kts 81°
2026-04-30 03:48 6.86976 127.08008 33790 ft 457 kts 81°
2026-04-30 03:49 6.87415 127.11156 34407 ft 456 kts 81°
2026-04-30 03:49 6.87856 127.14326 35023 ft 453 kts 81°
2026-04-30 03:49 6.88290 127.17436 35619 ft 451 kts 81°
2026-04-30 03:49 6.88722 127.20544 36144 ft 449 kts 82°
2026-04-30 03:50 6.89155 127.23659 36581 ft 449 kts 82°
2026-04-30 03:50 6.89580 127.26722 36959 ft 449 kts 82°
2026-04-30 03:50 6.90010 127.29826 37324 ft 449 kts 82°
2026-04-30 03:50 6.90444 127.32953 37622 ft 450 kts 82°
2026-04-30 03:51 6.90875 127.36065 37861 ft 452 kts 82°
2026-04-30 03:51 6.91311 127.39211 38072 ft 454 kts 82°
2026-04-30 03:51 6.91740 127.42320 38286 ft 455 kts 82°
2026-04-30 03:51 6.92177 127.45480 38499 ft 456 kts 82°
2026-04-30 03:52 6.92614 127.48645 38719 ft 457 kts 82°
2026-04-30 03:52 6.93053 127.51828 38874 ft 459 kts 82°
2026-04-30 03:52 6.93931 127.58176 38873 ft 460 kts 82°
2026-04-30 03:53 6.94803 127.64496 38874 ft 459 kts 82°
2026-04-30 03:53 6.95621 127.70431 38875 ft 459 kts 82°
2026-04-30 03:54 6.96139 127.74193 38873 ft 460 kts 82°
2026-04-30 03:55 6.97009 127.80524 38874 ft 460 kts 82°
2026-04-30 03:55 6.97887 127.86922 38873 ft 461 kts 82°
2026-04-30 03:56 6.98761 127.93286 38875 ft 461 kts 82°
2026-04-30 03:56 6.99643 127.99712 38877 ft 460 kts 82°
2026-04-30 03:57 7.00511 128.06047 38879 ft 460 kts 82°
2026-04-30 03:57 7.01385 128.12421 38879 ft 459 kts 82°
2026-04-30 03:58 7.02258 128.18810 38880 ft 459 kts 82°
2026-04-30 03:58 7.03120 128.25127 38880 ft 459 kts 82°
2026-04-30 03:59 7.03987 128.31483 38877 ft 459 kts 82°
2026-04-30 03:59 7.04851 128.37813 38870 ft 459 kts 82°
2026-04-30 04:00 7.05718 128.44186 38860 ft 458 kts 82°
2026-04-30 04:00 7.06581 128.50532 38862 ft 459 kts 82°
2026-04-30 04:01 7.07440 128.56850 38863 ft 458 kts 82°
2026-04-30 04:01 7.08304 128.63211 38871 ft 458 kts 82°
2026-04-30 04:02 7.09162 128.69536 38874 ft 458 kts 82°
2026-04-30 04:02 7.10018 128.75847 38875 ft 458 kts 82°
2026-04-30 04:03 7.10880 128.82219 38875 ft 457 kts 82°
2026-04-30 04:03 7.11729 128.88515 38883 ft 457 kts 82°
2026-04-30 04:04 7.12583 128.94838 38882 ft 457 kts 82°
2026-04-30 04:04 7.13437 129.01161 38882 ft 456 kts 82°
2026-04-30 04:05 7.14289 129.07477 38878 ft 457 kts 82°
2026-04-30 04:05 7.15145 129.13835 38876 ft 458 kts 82°
2026-04-30 04:06 7.15995 129.20157 38875 ft 458 kts 82°
2026-04-30 04:06 7.16845 129.26491 38877 ft 458 kts 82°
2026-04-30 04:07 7.17700 129.32863 38879 ft 457 kts 82°
2026-04-30 04:08 7.18973 129.42352 38877 ft 457 kts 82°
2026-04-30 04:08 7.19828 129.48735 38875 ft 458 kts 82°
2026-04-30 04:09 7.20675 129.55072 38877 ft 458 kts 82°
2026-04-30 04:09 7.21522 129.61410 38877 ft 458 kts 82°
2026-04-30 04:10 7.22372 129.67789 38878 ft 457 kts 82°
2026-04-30 04:10 7.23219 129.74141 38879 ft 458 kts 82°
2026-04-30 04:11 7.24062 129.80472 38875 ft 458 kts 82°
2026-04-30 04:11 7.24908 129.86821 38876 ft 458 kts 82°
2026-04-30 04:12 7.25754 129.93176 38877 ft 459 kts 82°
2026-04-30 04:12 7.26534 129.99550 38879 ft 459 kts 84°
2026-04-30 04:13 7.26826 130.05983 38878 ft 460 kts 88°
2026-04-30 04:13 7.26995 130.12413 38879 ft 460 kts 88°
2026-04-30 04:14 7.27166 130.18872 38878 ft 460 kts 88°
2026-04-30 04:14 7.27345 130.25507 38871 ft 460 kts 88°
2026-04-30 04:15 7.27516 130.31918 38864 ft 461 kts 88°
2026-04-30 04:15 7.27688 130.38356 38861 ft 461 kts 88°
2026-04-30 04:16 7.27858 130.44775 38859 ft 460 kts 88°
2026-04-30 04:16 7.28028 130.51230 38859 ft 461 kts 88°
2026-04-30 04:17 7.28198 130.57677 38860 ft 461 kts 88°
2026-04-30 04:17 7.28366 130.64090 38861 ft 461 kts 88°
2026-04-30 04:18 7.28535 130.70583 38861 ft 461 kts 88°
2026-04-30 04:18 7.28701 130.77026 38860 ft 461 kts 88°
2026-04-30 04:19 7.28866 130.83462 38862 ft 461 kts 88°
2026-04-30 04:19 7.29032 130.89918 38864 ft 462 kts 88°
2026-04-30 04:20 7.29196 130.96361 38865 ft 462 kts 88°
2026-04-30 04:20 7.29360 131.02820 38871 ft 462 kts 88°
2026-04-30 04:21 7.29523 131.09270 38879 ft 462 kts 88°
2026-04-30 04:21 7.29685 131.15738 38879 ft 462 kts 88°
2026-04-30 04:22 7.29845 131.22179 38884 ft 462 kts 88°
2026-04-30 04:22 7.30006 131.28644 38885 ft 463 kts 88°
2026-04-30 04:23 7.30167 131.35115 38880 ft 462 kts 89°
2026-04-30 04:23 7.30323 131.41582 38878 ft 463 kts 88°
2026-04-30 04:24 7.30479 131.48033 38877 ft 463 kts 89°
2026-04-30 04:24 7.30635 131.54517 38878 ft 463 kts 89°
2026-04-30 04:25 7.30671 131.55983 38879 ft 463 kts 89°
2026-04-30 04:25 7.30745 131.59055 38877 ft 463 kts 89°
2026-04-30 04:27 7.30833 131.62749 38876 ft 463 kts 89°
2026-04-30 04:28 7.30988 131.69240 38877 ft 463 kts 89°
2026-04-30 04:28 7.31141 131.75691 38879 ft 463 kts 89°
2026-04-30 04:29 7.31293 131.82184 38877 ft 464 kts 89°
2026-04-30 04:29 7.31444 131.88643 38874 ft 464 kts 89°
2026-04-30 04:30 7.31595 131.95106 38870 ft 464 kts 89°
2026-04-30 04:30 7.31747 132.01605 38864 ft 464 kts 89°
2026-04-30 04:31 7.31896 132.08073 38861 ft 464 kts 89°
2026-04-30 04:31 7.32044 132.14555 38859 ft 464 kts 89°
2026-04-30 04:32 7.32190 132.21051 38861 ft 464 kts 89°
2026-04-30 04:32 7.32336 132.27534 38863 ft 465 kts 89°
2026-04-30 04:33 7.32482 132.34041 38866 ft 465 kts 89°
2026-04-30 04:33 7.32626 132.40514 38865 ft 465 kts 89°
2026-04-30 04:34 7.32770 132.47038 38860 ft 466 kts 89°
2026-04-30 04:34 7.32914 132.53566 38859 ft 466 kts 89°
2026-04-30 04:35 7.33056 132.60042 38858 ft 467 kts 89°
2026-04-30 04:35 7.33198 132.66576 38859 ft 467 kts 89°
2026-04-30 04:36 7.33338 132.73090 38858 ft 467 kts 89°
2026-04-30 04:36 7.33477 132.79597 38858 ft 467 kts 89°
2026-04-30 04:37 7.33616 132.86125 38858 ft 467 kts 89°
2026-04-30 04:37 7.33753 132.92654 38858 ft 467 kts 89°
2026-04-30 04:38 7.33891 132.99179 38858 ft 468 kts 89°
2026-04-30 04:38 7.34029 133.05754 38858 ft 468 kts 89°
2026-04-30 04:39 7.34164 133.12259 38858 ft 468 kts 89°
2026-04-30 04:39 7.34299 133.18819 38858 ft 468 kts 89°
2026-04-30 04:40 7.34432 133.25372 38858 ft 469 kts 89°
2026-04-30 04:40 7.34566 133.31897 38858 ft 469 kts 89°
2026-04-30 04:41 7.34699 133.38449 38858 ft 469 kts 89°
2026-04-30 04:41 7.34828 133.45023 38858 ft 470 kts 89°
2026-04-30 04:42 7.34954 133.51585 38858 ft 470 kts 89°
2026-04-30 04:42 7.35081 133.58145 38859 ft 470 kts 89°
2026-04-30 04:43 7.35208 133.64711 38863 ft 470 kts 89°
2026-04-30 04:43 7.35334 133.71283 38866 ft 471 kts 89°
2026-04-30 04:44 7.35458 133.77847 38873 ft 471 kts 89°
2026-04-30 04:44 7.35583 133.84442 38877 ft 471 kts 89°
2026-04-30 04:45 7.35708 133.91022 38877 ft 471 kts 89°
2026-04-30 04:45 7.35830 133.97574 38875 ft 471 kts 89°
2026-04-30 04:46 7.35951 134.04178 38870 ft 472 kts 89°
2026-04-30 04:46 7.36072 134.10761 38866 ft 472 kts 89°
2026-04-30 04:47 7.36193 134.17378 38863 ft 471 kts 89°
2026-04-30 04:47 7.36312 134.23940 38863 ft 471 kts 89°
2026-04-30 04:48 7.36430 134.30541 38863 ft 470 kts 89°
2026-04-30 04:48 7.36548 134.37096 38867 ft 470 kts 89°
2026-04-30 04:49 7.36665 134.43663 38870 ft 470 kts 89°
2026-04-30 04:49 7.36673 134.50246 38876 ft 470 kts 92°
2026-04-30 04:50 7.36071 134.56747 38877 ft 470 kts 98°
2026-04-30 04:50 7.34780 134.63232 38876 ft 471 kts 103°
2026-04-30 04:51 7.33171 134.69594 38871 ft 471 kts 104°
2026-04-30 04:51 7.31875 134.74690 38870 ft 470 kts 104°
2026-04-30 04:52 7.31783 134.75056 38871 ft 470 kts 104°
2026-04-30 04:53 7.30819 134.78853 38869 ft 470 kts 104°
2026-04-30 04:53 7.29314 134.84792 38864 ft 470 kts 104°
2026-04-30 04:54 7.28299 134.88796 38861 ft 470 kts 104°
2026-04-30 04:57 7.28040 134.89818 38861 ft 470 kts 104°
2026-04-30 04:57 7.26424 134.96191 38856 ft 471 kts 103°
2026-04-30 04:58 7.24801 135.02597 38858 ft 471 kts 104°
2026-04-30 04:58 7.23191 135.08943 38858 ft 471 kts 104°
2026-04-30 04:59 7.21572 135.15318 38855 ft 470 kts 104°
2026-04-30 04:59 7.19957 135.21669 38859 ft 470 kts 103°
2026-04-30 05:00 7.18336 135.28046 38859 ft 470 kts 103°
2026-04-30 05:00 7.16720 135.34401 38858 ft 470 kts 103°
2026-04-30 05:01 7.15099 135.40768 38858 ft 470 kts 103°
2026-04-30 05:01 7.13475 135.47147 38858 ft 470 kts 103°
2026-04-30 05:02 7.11856 135.53502 38859 ft 469 kts 103°
2026-04-30 05:02 7.10246 135.59817 38859 ft 469 kts 103°
2026-04-30 05:03 7.08624 135.66174 38860 ft 469 kts 103°
2026-04-30 05:03 7.07006 135.72511 38859 ft 468 kts 103°
2026-04-30 05:04 7.05383 135.78873 38859 ft 468 kts 103°
2026-04-30 05:04 7.03774 135.85178 38859 ft 467 kts 103°
2026-04-30 05:05 7.02153 135.91521 38862 ft 468 kts 103°
2026-04-30 05:05 7.00789 135.97868 38872 ft 467 kts 98°
2026-04-30 05:06 6.99974 136.07617 38878 ft 467 kts 90°
2026-04-30 05:06 6.99979 136.14122 38879 ft 467 kts 89°
2026-04-30 05:07 6.99984 136.16249 38879 ft 467 kts 89°
2026-04-30 05:07 6.99989 136.18799 38879 ft 467 kts 89°
2026-04-30 05:08 6.99998 136.25314 38879 ft 467 kts 89°
2026-04-30 05:08 7.00003 136.31833 38874 ft 467 kts 89°
2026-04-30 05:09 7.00007 136.38379 38869 ft 467 kts 90°
2026-04-30 05:09 7.00007 136.44896 38864 ft 468 kts 90°
2026-04-30 05:10 7.00008 136.51459 38861 ft 469 kts 89°
2026-04-30 05:10 7.00007 136.58005 38858 ft 468 kts 90°
2026-04-30 05:11 7.00007 136.64545 38859 ft 468 kts 90°
2026-04-30 05:11 7.00006 136.71059 38858 ft 468 kts 90°
2026-04-30 05:12 7.00004 136.77632 38858 ft 468 kts 90°
2026-04-30 05:12 7.00001 136.84163 38858 ft 468 kts 90°
2026-04-30 05:13 7.00060 136.90694 38854 ft 468 kts 85°
2026-04-30 05:13 7.01252 136.97093 38858 ft 468 kts 72°
2026-04-30 05:14 7.03884 137.03056 38859 ft 470 kts 60°
2026-04-30 05:14 7.07841 137.08311 38859 ft 471 kts 48°
2026-04-30 05:15 7.12341 137.13054 38859 ft 472 kts 47°
2026-04-30 05:15 7.16898 137.17813 38865 ft 471 kts 47°
2026-04-30 05:16 7.21422 137.22559 38875 ft 470 kts 47°
2026-04-30 05:16 7.25967 137.27341 38878 ft 470 kts 47°
2026-04-30 05:17 7.30466 137.32082 38879 ft 471 kts 47°
2026-04-30 05:17 7.35007 137.36867 38879 ft 470 kts 47°
2026-04-30 05:18 7.39526 137.41635 38879 ft 471 kts 47°
2026-04-30 05:18 7.44019 137.46373 38875 ft 470 kts 47°
2026-04-30 05:19 7.48536 137.51140 38870 ft 470 kts 47°
2026-04-30 05:19 7.53062 137.55919 38870 ft 471 kts 47°
2026-04-30 05:20 7.57569 137.60678 38870 ft 471 kts 47°
2026-04-30 05:20 7.62097 137.65460 38870 ft 471 kts 47°
2026-04-30 05:21 7.66618 137.70236 38868 ft 471 kts 47°
2026-04-30 05:21 7.71150 137.75027 38868 ft 471 kts 47°
2026-04-30 05:22 7.75665 137.79803 38870 ft 472 kts 47°
2026-04-30 05:22 7.80216 137.84616 38867 ft 472 kts 47°
2026-04-30 05:23 7.84716 137.89378 38861 ft 472 kts 47°
2026-04-30 05:23 7.89253 137.94179 38858 ft 472 kts 47°
2026-04-30 05:24 7.93781 137.98975 38858 ft 473 kts 47°
2026-04-30 05:24 7.98337 138.03798 38858 ft 474 kts 47°
2026-04-30 05:25 8.02885 138.08617 38859 ft 475 kts 47°
2026-04-30 05:25 8.07441 138.13448 38858 ft 475 kts 47°
2026-04-30 05:26 8.11986 138.18268 38857 ft 475 kts 47°
2026-04-30 05:26 8.16549 138.23106 38858 ft 475 kts 47°
2026-04-30 05:27 8.21098 138.27933 38858 ft 476 kts 47°
2026-04-30 05:27 8.25664 138.32779 38858 ft 476 kts 47°
2026-04-30 05:28 8.30238 138.37634 38855 ft 476 kts 47°
2026-04-30 05:28 8.34792 138.42473 38855 ft 477 kts 47°
2026-04-30 05:29 8.39364 138.47330 38857 ft 478 kts 47°
2026-04-30 05:29 8.43964 138.52219 38857 ft 477 kts 47°
2026-04-30 05:30 8.48526 138.57071 38857 ft 477 kts 48°
2026-04-30 05:30 8.53092 138.61928 38855 ft 478 kts 47°
2026-04-30 05:31 8.57693 138.66824 38855 ft 478 kts 47°
2026-04-30 05:31 8.62267 138.71693 38859 ft 478 kts 48°
2026-04-30 05:32 8.66836 138.76561 38854 ft 478 kts 47°
2026-04-30 05:32 8.71403 138.81426 38860 ft 478 kts 47°
2026-04-30 05:33 8.75991 138.86313 38869 ft 478 kts 47°
2026-04-30 05:33 8.80563 138.91187 38871 ft 478 kts 48°
2026-04-30 05:34 8.85138 138.96065 38876 ft 478 kts 48°
2026-04-30 05:34 8.89730 139.00964 38873 ft 478 kts 47°
2026-04-30 05:35 8.94306 139.05853 38877 ft 479 kts 47°
2026-04-30 05:35 8.98901 139.10757 38875 ft 479 kts 47°
2026-04-30 05:36 9.03490 139.15657 38880 ft 480 kts 47°
2026-04-30 05:36 9.08051 139.20532 38879 ft 480 kts 47°
2026-04-30 05:37 9.12653 139.25450 38878 ft 480 kts 47°
2026-04-30 05:37 9.17242 139.30360 38878 ft 481 kts 47°
2026-04-30 05:38 9.21874 139.35318 38881 ft 482 kts 47°
2026-04-30 05:38 9.26471 139.40239 38880 ft 483 kts 47°
2026-04-30 05:39 9.31099 139.45193 38878 ft 483 kts 47°
2026-04-30 05:39 9.35711 139.50134 38882 ft 484 kts 47°
2026-04-30 05:40 9.40346 139.55103 38879 ft 484 kts 47°
2026-04-30 05:40 9.44961 139.60051 38877 ft 486 kts 47°
2026-04-30 05:41 9.49606 139.65033 38877 ft 486 kts 47°
2026-04-30 05:41 9.54263 139.70029 38878 ft 486 kts 47°
2026-04-30 05:42 9.58906 139.75011 38878 ft 486 kts 47°
2026-04-30 05:42 9.63540 139.79991 38880 ft 486 kts 47°
2026-04-30 05:43 9.68164 139.84959 38875 ft 486 kts 47°
2026-04-30 05:43 9.72825 139.89969 38876 ft 486 kts 47°
2026-04-30 05:44 9.77461 139.94954 38879 ft 486 kts 46°
2026-04-30 05:44 9.82099 139.99944 38877 ft 486 kts 46°
2026-04-30 05:45 9.86718 140.04915 38881 ft 486 kts 46°
2026-04-30 05:45 9.91367 140.09918 38882 ft 486 kts 46°
2026-04-30 05:46 9.96009 140.14918 38880 ft 485 kts 46°
2026-04-30 05:46 10.00598 140.19865 38887 ft 485 kts 46°
2026-04-30 05:47 10.05220 140.24849 38884 ft 485 kts 46°
2026-04-30 05:47 10.09840 140.29833 38884 ft 485 kts 46°
2026-04-30 05:48 10.14480 140.34837 38886 ft 485 kts 46°
2026-04-30 05:48 10.19088 140.39813 38881 ft 485 kts 46°
2026-04-30 05:49 10.23724 140.44821 38888 ft 485 kts 46°
2026-04-30 05:49 10.28335 140.49805 38893 ft 485 kts 46°
2026-04-30 05:50 10.32937 140.54779 38895 ft 485 kts 46°
2026-04-30 05:50 10.37573 140.59795 38898 ft 485 kts 46°
2026-04-30 05:51 10.42170 140.64769 38898 ft 486 kts 46°
2026-04-30 05:51 10.46806 140.69788 38899 ft 486 kts 46°
2026-04-30 05:52 10.51415 140.74779 38894 ft 485 kts 46°
2026-04-30 05:52 10.56034 140.79785 38893 ft 486 kts 46°
2026-04-30 05:53 10.60653 140.84793 38893 ft 486 kts 46°
2026-04-30 05:53 10.65279 140.89810 38894 ft 486 kts 46°
2026-04-30 05:54 10.69904 140.94829 38894 ft 486 kts 46°
2026-04-30 05:54 10.74512 140.99832 38896 ft 486 kts 46°
2026-04-30 05:55 10.79136 141.04857 38897 ft 486 kts 46°
2026-04-30 05:55 10.83757 141.09877 38895 ft 486 kts 46°
2026-04-30 05:56 10.88366 141.14890 38897 ft 485 kts 46°
2026-04-30 05:56 10.92998 141.19928 38900 ft 486 kts 46°
2026-04-30 05:57 10.97610 141.24948 38902 ft 487 kts 46°
2026-04-30 05:57 11.02219 141.29970 38900 ft 486 kts 46°
2026-04-30 05:58 11.06832 141.34994 38901 ft 485 kts 46°
2026-04-30 05:58 11.11441 141.40022 38902 ft 484 kts 46°
2026-04-30 05:59 11.15972 141.45050 38901 ft 485 kts 47°
2026-04-30 05:59 11.20477 141.50143 38896 ft 484 kts 47°
2026-04-30 06:00 11.24985 141.55237 38887 ft 483 kts 47°
2026-04-30 06:00 11.29494 141.60329 38885 ft 484 kts 47°
2026-04-30 06:01 11.34007 141.65425 38885 ft 484 kts 47°
2026-04-30 06:01 11.38507 141.70509 38887 ft 485 kts 47°
2026-04-30 06:02 11.43019 141.75609 38888 ft 485 kts 47°
2026-04-30 06:02 11.47521 141.80699 38892 ft 485 kts 47°
2026-04-30 06:03 11.52048 141.85822 38897 ft 485 kts 47°
2026-04-30 06:03 11.56541 141.90907 38899 ft 485 kts 47°
2026-04-30 06:04 11.61069 141.96034 38898 ft 485 kts 47°
2026-04-30 06:05 11.67834 142.03702 38900 ft 486 kts 47°
2026-04-30 06:05 11.72358 142.08832 38897 ft 486 kts 47°
2026-04-30 06:06 11.76863 142.13943 38897 ft 486 kts 47°
2026-04-30 06:06 11.81365 142.19055 38899 ft 486 kts 47°
2026-04-30 06:07 11.85879 142.24184 38900 ft 486 kts 47°
2026-04-30 06:07 11.90396 142.29317 38901 ft 486 kts 47°
2026-04-30 06:08 11.94909 142.34448 38901 ft 485 kts 47°
2026-04-30 06:08 11.99432 142.39595 38900 ft 485 kts 47°
2026-04-30 06:09 12.03929 142.44714 38908 ft 485 kts 47°
2026-04-30 06:09 12.08445 142.49860 38911 ft 486 kts 47°
2026-04-30 06:10 12.12944 142.54988 38904 ft 486 kts 47°
2026-04-30 06:10 12.17432 142.60110 38902 ft 486 kts 47°
2026-04-30 06:11 12.21940 142.65318 38901 ft 486 kts 49°
2026-04-30 06:11 12.25980 142.70854 38902 ft 487 kts 56°
2026-04-30 06:12 12.29545 142.76714 38898 ft 487 kts 58°
2026-04-30 06:12 12.33064 142.82623 38899 ft 486 kts 58°
2026-04-30 06:13 12.36575 142.88513 38901 ft 487 kts 58°
2026-04-30 06:13 12.40104 142.94424 38902 ft 488 kts 57°
2026-04-30 06:14 12.43638 143.00346 38901 ft 487 kts 57°
2026-04-30 06:14 12.47155 143.06239 38896 ft 487 kts 57°
2026-04-30 06:15 12.50690 143.12164 38896 ft 487 kts 58°
2026-04-30 06:15 12.54218 143.18086 38897 ft 487 kts 58°
2026-04-30 06:16 12.57724 143.23976 38895 ft 487 kts 58°
2026-04-30 06:16 12.61231 143.29880 38894 ft 487 kts 58°
2026-04-30 06:17 12.64749 143.35823 38898 ft 488 kts 58°
2026-04-30 06:17 12.68261 143.41763 38900 ft 489 kts 58°
2026-04-30 06:18 12.71789 143.47736 38716 ft 490 kts 58°
2026-04-30 06:18 12.73550 143.50717 38161 ft 488 kts 58°
2026-04-30 06:18 12.75278 143.53645 37581 ft 486 kts 58°
2026-04-30 06:18 12.77021 143.56598 37015 ft 483 kts 58°
2026-04-30 06:19 12.78766 143.59557 36444 ft 480 kts 57°
2026-04-30 06:19 12.80491 143.62483 35863 ft 478 kts 57°
2026-04-30 06:19 12.82198 143.65379 35223 ft 478 kts 58°
2026-04-30 06:19 12.83905 143.68274 34599 ft 478 kts 58°
2026-04-30 06:20 12.85629 143.71199 33962 ft 478 kts 58°
2026-04-30 06:20 12.87341 143.74106 33327 ft 480 kts 58°
2026-04-30 06:20 12.89054 143.77017 32683 ft 480 kts 58°
2026-04-30 06:20 12.90786 143.79958 32066 ft 480 kts 58°
2026-04-30 06:21 12.91357 143.80928 31853 ft 480 kts 58°
2026-04-30 06:21 12.94223 143.85797 30731 ft 482 kts 58°
2026-04-30 06:21 12.95937 143.88711 30041 ft 483 kts 58°
2026-04-30 06:21 12.97676 143.91667 29321 ft 485 kts 58°
2026-04-30 06:22 12.99417 143.94630 28587 ft 486 kts 58°
2026-04-30 06:22 13.01146 143.97572 27893 ft 487 kts 58°
2026-04-30 06:22 13.02886 144.00539 27420 ft 484 kts 58°
2026-04-30 06:22 13.04616 144.03485 26991 ft 481 kts 58°
2026-04-30 06:23 13.06338 144.06419 26471 ft 477 kts 58°
2026-04-30 06:23 13.08035 144.09312 25987 ft 472 kts 58°
2026-04-30 06:23 13.09709 144.12169 25517 ft 467 kts 58°
2026-04-30 06:23 13.11386 144.15028 25048 ft 462 kts 58°
2026-04-30 06:24 13.13026 144.17828 24585 ft 458 kts 58°
2026-04-30 06:24 13.14650 144.20601 24124 ft 453 kts 58°
2026-04-30 06:24 13.16263 144.23355 23664 ft 449 kts 58°
2026-04-30 06:24 13.17866 144.26091 23208 ft 444 kts 58°
2026-04-30 06:25 13.19438 144.28778 22751 ft 440 kts 58°
2026-04-30 06:25 13.20999 144.31445 22295 ft 436 kts 58°
2026-04-30 06:25 13.22556 144.34106 21839 ft 432 kts 58°
2026-04-30 06:25 13.24091 144.36732 21381 ft 429 kts 59°
2026-04-30 06:26 13.25627 144.39360 20910 ft 425 kts 59°
2026-04-30 06:26 13.27131 144.41933 20447 ft 422 kts 59°
2026-04-30 06:26 13.28639 144.44514 19982 ft 418 kts 59°
2026-04-30 06:26 13.30133 144.47073 19518 ft 415 kts 59°
2026-04-30 06:27 13.31608 144.49600 19054 ft 412 kts 59°
2026-04-30 06:27 13.33065 144.52097 18592 ft 409 kts 58°
2026-04-30 06:27 13.34513 144.54578 18137 ft 405 kts 59°
2026-04-30 06:27 13.35951 144.57044 17672 ft 403 kts 58°
2026-04-30 06:28 13.37388 144.59509 17207 ft 400 kts 58°
2026-04-30 06:28 13.38805 144.61940 16760 ft 397 kts 58°
2026-04-30 06:28 13.40226 144.64378 16278 ft 395 kts 58°
2026-04-30 06:28 13.41637 144.66779 15821 ft 392 kts 57°
2026-04-30 06:29 13.43446 144.68823 15351 ft 388 kts 36°
2026-04-30 06:29 13.45852 144.70064 14900 ft 386 kts 17°
2026-04-30 06:29 13.48484 144.70410 14456 ft 384 kts 358°
2026-04-30 06:29 13.51097 144.69850 14012 ft 383 kts 339°
2026-04-30 06:30 13.53390 144.68436 13554 ft 384 kts 321°
2026-04-30 06:30 13.55096 144.66338 13100 ft 384 kts 302°
2026-04-30 06:30 13.56037 144.63788 12640 ft 386 kts 283°
2026-04-30 06:30 13.56117 144.61063 12208 ft 387 kts 263°
2026-04-30 06:31 13.55320 144.58441 11763 ft 387 kts 244°
2026-04-30 06:31 13.53726 144.56232 11322 ft 386 kts 224°
2026-04-30 06:31 13.51527 144.54692 10915 ft 381 kts 204°
2026-04-30 06:31 13.49010 144.53986 10775 ft 367 kts 185°
2026-04-30 06:32 13.46512 144.54109 10611 ft 352 kts 166°
2026-04-30 06:32 13.44168 144.54712 10478 ft 340 kts 166°
2026-04-30 06:32 13.41856 144.54985 10336 ft 331 kts 180°
2026-04-30 06:32 13.39624 144.54614 10198 ft 322 kts 198°
2026-04-30 06:33 13.37649 144.53616 10089 ft 312 kts 215°
2026-04-30 06:33 13.36089 144.52136 9982 ft 301 kts 232°
2026-04-30 06:33 13.34999 144.50337 9868 ft 295 kts 244°
2026-04-30 06:33 13.33876 144.48579 9567 ft 293 kts 223°
2026-04-30 06:34 13.32117 144.47476 9516 ft 303 kts 196°
2026-04-30 06:34 13.30026 144.47232 9483 ft 301 kts 170°
2026-04-30 06:34 13.28066 144.47905 9435 ft 296 kts 145°
2026-04-30 06:34 13.26611 144.49345 9369 ft 289 kts 119°
2026-04-30 06:35 13.25937 144.51263 9283 ft 284 kts 93°
2026-04-30 06:35 13.26164 144.53227 9178 ft 281 kts 68°
2026-04-30 06:35 13.27244 144.54887 9059 ft 280 kts 42°
2026-04-30 06:35 13.28929 144.55853 8946 ft 282 kts 16°
2026-04-30 06:36 13.30902 144.55939 8829 ft 286 kts 350°
2026-04-30 06:36 13.32815 144.55392 8728 ft 286 kts 351°
2026-04-30 06:36 13.34791 144.55348 8545 ft 277 kts 15°
2026-04-30 06:36 13.36482 144.56149 8335 ft 266 kts 39°
2026-04-30 06:37 13.37768 144.57457 8139 ft 257 kts 52°
2026-04-30 06:37 13.38758 144.58951 7927 ft 250 kts 59°
2026-04-30 06:37 13.39593 144.60507 7727 ft 243 kts 62°
2026-04-30 06:37 13.40370 144.62009 7529 ft 237 kts 63°
2026-04-30 06:38 13.41095 144.63500 7347 ft 228 kts 64°
2026-04-30 06:38 13.41775 144.64969 7231 ft 226 kts 64°
2026-04-30 06:38 13.42442 144.66437 7115 ft 226 kts 65°
2026-04-30 06:38 13.43098 144.67885 6857 ft 222 kts 65°
2026-04-30 06:39 13.43758 144.69339 6350 ft 229 kts 65°
2026-04-30 06:39 13.44437 144.70828 5774 ft 238 kts 65°
2026-04-30 06:39 13.45150 144.72392 5169 ft 245 kts 65°
2026-04-30 06:39 13.45871 144.73973 4470 ft 247 kts 65°
2026-04-30 06:40 13.46586 144.75539 3925 ft 237 kts 65°
2026-04-30 06:40 13.47275 144.77046 3330 ft 232 kts 65°
2026-04-30 06:40 13.47954 144.78534 2742 ft 229 kts 65°
2026-04-30 06:40 13.48614 144.79979 2324 ft 219 kts 65°
2026-04-30 06:41 13.49142 144.81352 2244 ft 197 kts 79°
2026-04-30 06:41 13.48783 144.82610 2148 ft 183 kts 128°
2026-04-30 06:41 13.47634 144.83107 2165 ft 182 kts 171°
2026-04-30 06:41 13.46389 144.83078 2191 ft 176 kts 178°
2026-04-30 06:42 13.45166 144.82947 2204 ft 177 kts 181°
2026-04-30 06:42 13.43943 144.82752 2206 ft 177 kts 184°
2026-04-30 06:42 13.42713 144.82526 2206 ft 177 kts 184°
2026-04-30 06:42 13.41506 144.82280 2210 ft 178 kts 186°
2026-04-30 06:43 13.40295 144.81915 2207 ft 181 kts 198°
2026-04-30 06:43 13.39226 144.81212 2191 ft 186 kts 232°
2026-04-30 06:43 13.38618 144.80043 2212 ft 188 kts 252°
2026-04-30 06:43 13.38274 144.78748 2213 ft 187 kts 259°
2026-04-30 06:44 13.37936 144.77455 2209 ft 187 kts 252°
2026-04-30 06:44 13.37504 144.76180 2211 ft 187 kts 251°
2026-04-30 06:44 13.37042 144.74937 2205 ft 188 kts 246°
2026-04-30 06:44 13.36501 144.73704 2205 ft 188 kts 245°
2026-04-30 06:45 13.35964 144.72487 2207 ft 188 kts 245°
2026-04-30 06:45 13.35425 144.71269 2210 ft 188 kts 245°
2026-04-30 06:45 13.34884 144.70041 2202 ft 188 kts 245°
2026-04-30 06:45 13.34346 144.68826 2209 ft 188 kts 245°
2026-04-30 06:46 13.33804 144.67601 2207 ft 188 kts 245°
2026-04-30 06:46 13.33257 144.66376 2198 ft 187 kts 245°
2026-04-30 06:46 13.32719 144.65172 2200 ft 187 kts 245°
2026-04-30 06:46 13.32171 144.63947 2203 ft 187 kts 245°
2026-04-30 06:47 13.31629 144.62732 2207 ft 188 kts 245°
2026-04-30 06:47 13.31087 144.61517 2196 ft 187 kts 245°
2026-04-30 06:47 13.30546 144.60309 2189 ft 187 kts 245°
2026-04-30 06:47 13.30002 144.59085 2188 ft 188 kts 245°
2026-04-30 06:48 13.29467 144.57867 2192 ft 188 kts 245°
2026-04-30 06:48 13.28939 144.56628 2187 ft 187 kts 253°
2026-04-30 06:48 13.28963 144.55337 2175 ft 180 kts 301°
2026-04-30 06:48 13.29767 144.54454 2186 ft 165 kts 346°
2026-04-30 06:49 13.30836 144.54361 2201 ft 153 kts 16°
2026-04-30 06:49 13.31874 144.54613 2203 ft 153 kts 22°
2026-04-30 06:49 13.32905 144.54929 2196 ft 154 kts 23°
2026-04-30 06:49 13.33951 144.55261 2192 ft 155 kts 23°
2026-04-30 06:50 13.34970 144.55591 2189 ft 155 kts 23°
2026-04-30 06:50 13.36016 144.55930 2192 ft 155 kts 24°
2026-04-30 06:50 13.37027 144.56288 2186 ft 152 kts 36°
2026-04-30 06:50 13.37813 144.57022 2204 ft 154 kts 54°
2026-04-30 06:51 13.38415 144.57941 2205 ft 157 kts 61°
2026-04-30 06:51 13.38943 144.58933 2194 ft 158 kts 64°
2026-04-30 06:51 13.39440 144.59940 2196 ft 158 kts 65°
2026-04-30 06:51 13.39922 144.60953 2194 ft 158 kts 65°
2026-04-30 06:52 13.40401 144.61980 2196 ft 158 kts 65°
2026-04-30 06:52 13.40870 144.63001 2199 ft 159 kts 66°
2026-04-30 06:52 13.41337 144.64020 2186 ft 149 kts 66°
2026-04-30 06:52 13.41744 144.64916 2164 ft 132 kts 66°
2026-04-30 06:53 13.42126 144.65756 2185 ft 131 kts 66°
2026-04-30 06:53 13.42515 144.66611 2203 ft 132 kts 66°
2026-04-30 06:53 13.42905 144.67473 2208 ft 132 kts 66°
2026-04-30 06:53 13.43290 144.68315 2205 ft 131 kts 66°
2026-04-30 06:54 13.43680 144.69168 2074 ft 131 kts 65°
2026-04-30 06:54 13.44067 144.70016 1903 ft 131 kts 66°
2026-04-30 06:54 13.44453 144.70869 1740 ft 131 kts 65°
2026-04-30 06:54 13.44837 144.71710 1575 ft 132 kts 66°
2026-04-30 06:55 13.45229 144.72563 1417 ft 131 kts 66°
2026-04-30 06:55 13.45617 144.73416 1255 ft 131 kts 66°
2026-04-30 06:55 13.46005 144.74263 1086 ft 132 kts 65°
2026-04-30 06:55 13.46397 144.75122 910 ft 133 kts 65°
2026-04-30 06:56 13.46791 144.75989 747 ft 133 kts 66°
2026-04-30 06:56 13.47182 144.76843 577 ft 132 kts 65°
2026-04-30 06:56 13.47574 144.77702 409 ft 134 kts 65°
2026-04-30 06:56 13.47972 144.78574 255 ft 130 kts 65°
2026-04-30 06:57 13.48278 144.79244 270 ft 74 kts 65°
2026-04-30 06:57 13.48402 144.79517 275 ft 15 kts 65°
2026-04-30 06:57 13.48449 144.79620 278 ft 16 kts 65°
2026-04-30 06:57 13.48500 144.79735 281 ft 18 kts 64°
2026-04-30 06:58 13.48559 144.79860 281 ft 19 kts 64°
2026-04-30 06:58 13.48623 144.79994 280 ft 21 kts 64°
2026-04-30 06:58 13.48669 144.80095 283 ft 11 kts 64°
2026-04-30 06:58 13.48707 144.80171 284 ft 12 kts 60°
2026-04-30 06:59 13.48764 144.80249 285 ft 14 kts 43°
2026-04-30 06:59 13.48832 144.80307 287 ft 11 kts 38°
2026-04-30 06:59 13.48909 144.80362 286 ft 15 kts 34°
2026-04-30 06:59 13.48976 144.80412 285 ft 7 kts 43°
2026-04-30 07:00 13.49004 144.80446 286 ft 5 kts 53°
2026-04-30 07:00 13.49027 144.80463 285 ft 3 kts 15°
2026-04-30 07:00 13.49048 144.80458 284 ft 4 kts 339°
2026-04-30 07:00 13.49078 144.80446 281 ft 2 kts 336°
2026-04-30 07:01 13.49085 144.80441 281 ft 2 kts 333°
2026-04-30 07:01 13.49098 144.80435 280 ft 2 kts 332°
2026-04-30 07:01 13.49103 144.80432 279 ft 0 kts 333°